Time,TemperatureF,DewpointF,PressureIn,WindDirection,WindDirectionDegrees,WindSpeedMPH,WindSpeedGustMPH,Humidity,HourlyPrecipIn,Conditions,Clouds,dailyrainin,SoftwareType,DateUTC
2013-09-13 00:05:00,56.0,55.0,29.90,NNE,19,0.0,0.0,95,0.00,,,0.00,weatherlink.com 1.10,2013-09-13 07:05:00,
2013-09-13 00:20:00,56.1,55.0,29.90,NNE,19,1.0,1.0,95,0.00,,,0.00,weatherlink.com 1.10,2013-09-13 07:20:00,
2013-09-13 00:35:00,55.8,54.0,29.90,NNE,18,0.0,2.0,95,0.00,,,0.00,weatherlink.com 1.10,2013-09-13 07:35:00,
2013-09-13 00:50:00,55.6,54.0,29.90,North,11,0.0,2.0,95,0.00,,,0.00,weatherlink.com 1.10,2013-09-13 07:50:00,
2013-09-13 01:05:00,55.7,54.0,29.91,NNE,13,0.0,1.0,95,0.00,,,0.00,weatherlink.com 1.10,2013-09-13 08:05:00,
2013-09-13 01:20:00,55.5,54.0,29.91,NNE,13,0.0,0.0,95,0.00,,,0.00,weatherlink.com 1.10,2013-09-13 08:20:00,
2013-09-13 02:20:00,55.0,54.0,29.91,NNE,13,0.0,0.0,96,0.00,,,0.00,weatherlink.com 1.10,2013-09-13 09:20:00,
2013-09-13 02:35:00,55.1,54.0,29.91,NNE,13,0.0,0.0,96,0.00,,,0.00,weatherlink.com 1.10,2013-09-13 09:35:00,
2013-09-13 02:50:00,55.0,54.0,29.90,WNW,299,0.0,1.0,96,0.00,,,0.00,weatherlink.com 1.10,2013-09-13 09:50:00,
2013-09-13 03:05:00,55.1,54.0,29.90,WNW,299,0.0,0.0,97,0.00,,,0.00,weatherlink.com 1.10,2013-09-13 10:05:00,
2013-09-13 03:20:00,55.1,54.0,29.90,WNW,299,0.0,0.0,96,0.00,,,0.00,weatherlink.com 1.10,2013-09-13 10:20:00,
2013-09-13 03:35:00,54.9,54.0,29.89,WNW,299,0.0,0.0,96,0.00,,,0.00,weatherlink.com 1.10,2013-09-13 10:35:00,
2013-09-13 03:50:00,54.7,54.0,29.89,WNW,299,0.0,0.0,96,0.00,,,0.00,weatherlink.com 1.10,2013-09-13 10:50:00,
2013-09-13 04:20:00,54.5,54.0,29.89,West,273,0.0,1.0,97,0.00,,,0.00,weatherlink.com 1.10,2013-09-13 11:20:00,
2013-09-13 04:35:00,54.4,54.0,29.89,WSW,244,0.0,0.0,97,0.00,,,0.00,weatherlink.com 1.10,2013-09-13 11:35:00,
2013-09-13 04:50:00,54.2,53.0,29.89,WSW,244,0.0,0.0,97,0.00,,,0.00,weatherlink.com 1.10,2013-09-13 11:50:00,
2013-09-13 05:05:00,54.1,53.0,29.89,West,268,0.0,0.0,97,0.00,,,0.00,weatherlink.com 1.10,2013-09-13 12:05:00,
2013-09-13 05:20:00,54.0,53.0,29.89,East,82,0.0,1.0,97,0.00,,,0.00,weatherlink.com 1.10,2013-09-13 12:20:00,
2013-09-13 05:35:00,53.7,53.0,29.89,ENE,74,0.0,1.0,97,0.00,,,0.00,weatherlink.com 1.10,2013-09-13 12:35:00,
2013-09-13 05:50:00,53.6,53.0,29.89,NW,322,0.0,0.0,97,0.00,,,0.00,weatherlink.com 1.10,2013-09-13 12:50:00,
2013-09-13 06:05:00,53.3,53.0,29.89,NW,322,0.0,0.0,97,0.00,,,0.00,weatherlink.com 1.10,2013-09-13 13:05:00,
2013-09-13 06:20:00,53.3,53.0,29.89,NW,322,0.0,0.0,97,0.00,,,0.00,weatherlink.com 1.10,2013-09-13 13:20:00,
2013-09-13 06:35:00,53.2,52.0,29.89,NW,318,0.0,0.0,97,0.00,,,0.00,weatherlink.com 1.10,2013-09-13 13:35:00,
2013-09-13 06:50:00,53.2,52.0,29.90,NNW,330,0.0,0.0,97,0.00,,,0.00,weatherlink.com 1.10,2013-09-13 13:50:00,
2013-09-13 07:05:00,53.1,52.0,29.90,NNW,331,0.0,1.0,97,0.00,,,0.00,weatherlink.com 1.10,2013-09-13 14:05:00,
2013-09-13 07:20:00,53.0,52.0,29.90,NNW,331,0.0,0.0,97,0.00,,,0.00,weatherlink.com 1.10,2013-09-13 14:20:00,
2013-09-13 07:35:00,52.9,52.0,29.91,NNW,331,0.0,0.0,97,0.00,,,0.00,weatherlink.com 1.10,2013-09-13 14:35:00,
2013-09-13 07:51:00,53.1,52.0,29.91,NNW,331,0.0,0.0,97,0.00,,,0.00,weatherlink.com 1.10,2013-09-13 14:51:00,
2013-09-13 08:06:00,53.4,53.0,29.91,NNW,331,0.0,0.0,97,0.00,,,0.00,weatherlink.com 1.10,2013-09-13 15:06:00,
2013-09-13 08:21:00,53.7,53.0,29.91,NNW,331,0.0,0.0,97,0.00,,,0.00,weatherlink.com 1.10,2013-09-13 15:21:00,
2013-09-13 08:36:00,54.2,53.0,29.91,NNW,331,0.0,0.0,97,0.00,,,0.00,weatherlink.com 1.10,2013-09-13 15:36:00,
2013-09-13 08:51:00,54.8,54.0,29.91,NNW,331,0.0,0.0,97,0.00,,,0.00,weatherlink.com 1.10,2013-09-13 15:51:00,
2013-09-13 09:06:00,54.9,54.0,29.91,NNW,331,0.0,0.0,97,0.00,,,0.00,weatherlink.com 1.10,2013-09-13 16:06:00,
2013-09-13 09:21:00,57.7,57.0,29.91,NNW,331,0.0,0.0,98,0.00,,,0.00,weatherlink.com 1.10,2013-09-13 16:21:00,
2013-09-13 09:36:00,56.4,55.0,29.91,South,186,2.0,4.0,95,0.01,,,0.01,weatherlink.com 1.10,2013-09-13 16:36:00,
2013-09-13 09:51:00,57.6,57.0,29.91,SSW,209,4.0,6.0,96,0.01,,,0.01,weatherlink.com 1.10,2013-09-13 16:51:00,
2013-09-13 10:06:00,58.4,56.0,29.90,SSW,192,4.0,6.0,93,0.01,,,0.01,weatherlink.com 1.10,2013-09-13 17:06:00,
2013-09-13 10:21:00,59.4,57.0,29.90,SSW,209,3.0,7.0,91,0.01,,,0.01,weatherlink.com 1.10,2013-09-13 17:21:00,
2013-09-13 10:36:00,60.3,57.0,29.89,SSW,208,4.0,7.0,89,0.00,,,0.01,weatherlink.com 1.10,2013-09-13 17:36:00,
2013-09-13 10:51:00,60.3,57.0,29.89,SSW,209,5.0,7.0,88,0.00,,,0.01,weatherlink.com 1.10,2013-09-13 17:51:00,
2013-09-13 11:06:00,61.1,57.0,29.89,SW,229,3.0,7.0,86,0.00,,,0.01,weatherlink.com 1.10,2013-09-13 18:06:00,
2013-09-13 11:21:00,61.2,57.0,29.89,SSW,194,5.0,8.0,86,0.00,,,0.01,weatherlink.com 1.10,2013-09-13 18:21:00,
2013-09-13 11:36:00,61.2,57.0,29.89,SSW,195,5.0,7.0,85,0.00,,,0.01,weatherlink.com 1.10,2013-09-13 18:36:00,
2013-09-13 11:51:00,61.8,57.0,29.88,SSW,207,6.0,8.0,84,0.00,,,0.01,weatherlink.com 1.10,2013-09-13 18:51:00,
2013-09-13 12:06:00,62.9,58.0,29.88,South,188,5.0,8.0,83,0.00,,,0.01,weatherlink.com 1.10,2013-09-13 19:06:00,
2013-09-13 12:21:00,62.8,57.0,29.87,SSW,207,3.0,7.0,82,0.00,,,0.01,weatherlink.com 1.10,2013-09-13 19:21:00,
2013-09-13 12:36:00,63.6,58.0,29.87,South,170,4.0,8.0,81,0.00,,,0.01,weatherlink.com 1.10,2013-09-13 19:36:00,
2013-09-13 12:51:00,64.8,58.0,29.86,SSW,204,7.0,8.0,79,0.00,,,0.01,weatherlink.com 1.10,2013-09-13 19:51:00,
2013-09-13 13:06:00,65.2,59.0,29.86,South,182,6.0,8.0,79,0.00,,,0.01,weatherlink.com 1.10,2013-09-13 20:06:00,
2013-09-13 13:21:00,66.1,59.0,29.85,South,180,5.0,8.0,77,0.00,,,0.01,weatherlink.com 1.10,2013-09-13 20:21:00,
2013-09-13 13:36:00,65.8,58.0,29.85,SSW,203,7.0,9.0,77,0.00,,,0.01,weatherlink.com 1.10,2013-09-13 20:36:00,
2013-09-13 13:51:00,66.1,59.0,29.85,SSW,213,4.0,8.0,77,0.00,,,0.01,weatherlink.com 1.10,2013-09-13 20:51:00,
2013-09-13 14:06:00,66.1,58.0,29.85,South,184,5.0,8.0,76,0.00,,,0.01,weatherlink.com 1.10,2013-09-13 21:06:00,
2013-09-13 14:21:00,66.2,59.0,29.84,South,180,6.0,10.0,77,0.00,,,0.01,weatherlink.com 1.10,2013-09-13 21:21:00,
2013-09-13 14:36:00,66.2,58.0,29.84,SSW,194,6.0,9.0,76,0.00,,,0.01,weatherlink.com 1.10,2013-09-13 21:36:00,
2013-09-13 14:51:00,66.3,59.0,29.83,SSE,161,6.0,8.0,76,0.00,,,0.01,weatherlink.com 1.10,2013-09-13 21:51:00,
2013-09-13 15:06:00,66.1,58.0,29.83,SSW,211,6.0,8.0,76,0.00,,,0.01,weatherlink.com 1.10,2013-09-13 22:06:00,
2013-09-13 15:21:00,66.1,58.0,29.82,SSW,202,7.0,9.0,76,0.00,,,0.01,weatherlink.com 1.10,2013-09-13 22:21:00,
2013-09-13 15:36:00,66.5,58.0,29.82,SW,224,5.0,8.0,75,0.00,,,0.01,weatherlink.com 1.10,2013-09-13 22:36:00,
2013-09-13 15:51:00,67.6,59.0,29.81,SSW,207,3.0,7.0,74,0.00,,,0.01,weatherlink.com 1.10,2013-09-13 22:51:00,
2013-09-13 16:07:00,69.3,60.0,29.81,SW,234,5.0,7.0,71,0.00,,,0.01,weatherlink.com 1.10,2013-09-13 23:07:00,
2013-09-13 16:22:00,69.0,59.0,29.80,SSW,200,3.0,7.0,71,0.00,,,0.01,weatherlink.com 1.10,2013-09-13 23:22:00,
2013-09-13 16:37:00,68.6,59.0,29.79,South,190,4.0,7.0,71,0.00,,,0.01,weatherlink.com 1.10,2013-09-13 23:37:00,
2013-09-13 16:52:00,68.2,59.0,29.79,South,187,4.0,6.0,72,0.00,,,0.01,weatherlink.com 1.10,2013-09-13 23:52:00,
2013-09-13 17:07:00,66.9,58.0,29.79,SW,215,4.0,7.0,74,0.00,,,0.01,weatherlink.com 1.10,2013-09-14 00:07:00,
2013-09-13 17:22:00,67.0,58.0,29.78,SW,215,3.0,6.0,74,0.00,,,0.01,weatherlink.com 1.10,2013-09-14 00:22:00,
2013-09-13 17:37:00,65.3,58.0,29.78,SSW,209,3.0,7.0,76,0.00,,,0.01,weatherlink.com 1.10,2013-09-14 00:37:00,
2013-09-13 17:52:00,66.1,58.0,29.78,SSW,208,4.0,6.0,75,0.00,,,0.01,weatherlink.com 1.10,2013-09-14 00:52:00,
2013-09-13 18:07:00,65.0,58.0,29.78,SSW,208,4.0,5.0,77,0.00,,,0.01,weatherlink.com 1.10,2013-09-14 01:07:00,
2013-09-13 18:52:00,62.9,57.0,29.78,SSW,202,1.0,2.0,80,0.00,,,0.01,weatherlink.com 1.10,2013-09-14 01:52:00,
2013-09-13 19:07:00,62.3,56.0,29.78,SW,220,0.0,2.0,81,0.00,,,0.01,weatherlink.com 1.10,2013-09-14 02:07:00,
2013-09-13 19:22:00,60.9,56.0,29.78,SW,219,0.0,0.0,83,0.00,,,0.01,weatherlink.com 1.10,2013-09-14 02:22:00,
2013-09-13 19:37:00,59.9,55.0,29.78,SW,219,0.0,0.0,85,0.00,,,0.01,weatherlink.com 1.10,2013-09-14 02:37:00,
2013-09-13 20:07:00,58.1,55.0,29.78,SW,220,0.0,0.0,89,0.00,,,0.01,weatherlink.com 1.10,2013-09-14 03:07:00,
2013-09-13 20:22:00,57.7,55.0,29.79,SW,220,0.0,0.0,90,0.00,,,0.01,weatherlink.com 1.10,2013-09-14 03:22:00,
2013-09-13 20:37:00,57.3,55.0,29.80,SW,220,0.0,0.0,90,0.00,,,0.01,weatherlink.com 1.10,2013-09-14 03:37:00,
2013-09-13 21:07:00,56.9,54.0,29.80,NE,40,0.0,0.0,91,0.00,,,0.01,weatherlink.com 1.10,2013-09-14 04:07:00,
2013-09-13 21:22:00,56.5,54.0,29.80,NE,40,0.0,0.0,92,0.00,,,0.01,weatherlink.com 1.10,2013-09-14 04:22:00,
2013-09-13 21:37:00,56.1,54.0,29.80,NE,40,0.0,0.0,92,0.00,,,0.01,weatherlink.com 1.10,2013-09-14 04:37:00,
2013-09-13 21:52:00,55.8,54.0,29.80,NE,40,0.0,0.0,93,0.00,,,0.01,weatherlink.com 1.10,2013-09-14 04:52:00,
2013-09-13 22:07:00,55.6,54.0,29.81,NE,40,0.0,0.0,93,0.00,,,0.01,weatherlink.com 1.10,2013-09-14 05:07:00,
2013-09-13 22:22:00,55.4,54.0,29.81,NE,40,0.0,0.0,94,0.00,,,0.01,weatherlink.com 1.10,2013-09-14 05:22:00,
2013-09-13 22:37:00,55.3,54.0,29.80,NE,40,0.0,0.0,94,0.00,,,0.01,weatherlink.com 1.10,2013-09-14 05:37:00,
2013-09-13 22:52:00,55.2,54.0,29.80,NE,40,0.0,0.0,94,0.00,,,0.01,weatherlink.com 1.10,2013-09-14 05:52:00,
2013-09-13 23:07:00,55.0,53.0,29.80,NE,40,0.0,0.0,94,0.00,,,0.01,weatherlink.com 1.10,2013-09-14 06:07:00,
2013-09-13 23:22:00,54.9,54.0,29.80,NE,40,0.0,0.0,95,0.00,,,0.01,weatherlink.com 1.10,2013-09-14 06:22:00,
2013-09-13 23:37:00,55.0,54.0,29.80,NE,40,0.0,0.0,95,0.00,,,0.01,weatherlink.com 1.10,2013-09-14 06:37:00,
2013-09-13 23:52:00,55.0,54.0,29.80,NE,40,0.0,0.0,95,0.00,,,0.01,weatherlink.com 1.10,2013-09-14 06:52:00,